Simultaneous Nadir Overpasses (SNOs) Predictions

Prediction of SNOs between AQUA and METOP-A Satellite Orbit:

Table of predicted SNOs for the next 14.0 days since TLE Epoch: 12/20/2014
Index Date (AQUA) Time (AQUA) Lat,Lon (AQUA) SZA (AQUA ) Date (METOP-A) Time (METOP-A) Lat,Lon (METOP-A) SZA (METOP-A ) Distance(km) Time Diff (sec)
1 12/22/2014 03:40:27 73.55, 119.72 96.94 12/22/2014 03:39:16 73.47, 118.71 96.90 32.72 71
2 12/22/2014 04:29:58 -73.83, -73.25 82.77 12/22/2014 04:29:51 -73.82, -73.15 82.78 3.24 7
3 12/22/2014 05:19:26 73.85, 94.33 97.26 12/22/2014 05:20:30 73.85, 94.25 97.25 2.51 64
4 12/24/2014 23:14:47 73.67,-174.12 97.04 12/24/2014 23:13:34 73.61,-174.56 97.00 15.56 73
5 12/25/2014 00:04:15 -73.79, -6.74 82.83 12/25/2014 00:04:12 -73.80, -6.77 82.82 1.58 3
6 12/25/2014 00:53:44 73.87, 160.72 97.26 12/25/2014 00:54:50 73.88, 160.75 97.26 1.52 66
7 12/27/2014 18:49:04 73.72,-107.79 97.01 12/27/2014 18:47:52 73.73,-107.86 97.03 2.29 72
8 12/27/2014 19:38:32 -73.84, 59.59 82.87 12/27/2014 19:38:32 -73.83, 59.70 82.89 3.71 0
9 12/27/2014 20:28:00 73.87,-132.85 97.17 12/27/2014 20:29:11 73.85,-132.90 97.14 2.73 71
10 12/30/2014 14:23:18 73.75, -41.41 96.89 12/30/2014 14:22:11 73.74, -41.42 96.89 1.73 67
11 12/30/2014 15:12:45 -73.82, 126.09 83.05 12/30/2014 15:12:51 -73.83, 126.14 83.03 2.51 6
12 12/30/2014 16:02:16 74.01, -66.71 97.16 12/30/2014 16:03:27 74.01, -66.10 97.14 18.56 71
13 01/02/2015 09:57:31 73.76, 25.02 96.69 01/02/2015 09:56:31 73.73, 24.99 96.67 3.47 60
14 01/02/2015 10:46:58 -73.82,-167.48 83.25 01/02/2015 10:47:11 -73.83,-167.46 83.25 0.93 13




NCC Satellite Simultaneous Nadir Overpasses (SNOs) Prediction Service
